Location: Unspecified
(49.9820°N, 20.4363°E)
Time: 15:15:20
(UTC+02:00)

ISS - Pass Details

Date: 25 May 2018
Orbit: 402 x 408 km, 51.6° (Epoch: 18 September)

Event Time Altitude Azimuth Distance (km) Brightness Sun altitude
Rises 02:00:35 0° 287° (WNW) 2,321 0.0 -16.6°
Reaches altitude 10° 02:02:47 10° 277° (W) 1,459 -1.2 -16.5°
Enters shadow 02:03:10 12° 274° (W) 1,318 -1.4 -16.5°
